| time (UTC) | temp F | wind direction | speed MPH | gust MPH | rain 1hr in | rain 24hr in | rain mn in | humidity % | barometer mb |
| 20260508193128 | 64 | 0 | 0.0 | 3.0 | 0.00 | 0.00 | 0.01 | 8 | 1009.5 |
| 20260508191650 | 64 | 345 | 1.0 | 1.0 | 0.00 | 0.00 | 0.01 | 8 | 1009.4 |
| 20260508190301 | 65 | 306 | 2.0 | 3.0 | 0.00 | 0.00 | 0.01 | 7 | 1009.4 |
| 20260508185031 | 65 | 110 | 1.0 | 2.0 | 0.00 | 0.00 | 0.01 | 7 | 1009.2 |
| 20260508183616 | 66 | 0 | 0.0 | 2.0 | 0.00 | 0.00 | 0.01 | 7 | 1009.1 |
| 20260508182206 | 67 | 285 | 2.0 | 2.0 | 0.00 | 0.00 | 0.01 | 7 | 1009.0 |
| 20260508180938 | 68 | 0 | 0.0 | 0.0 | 0.00 | 0.00 | 0.01 | 7 | 1008.8 |
| 20260508175451 | 67 | 0 | 0.0 | 3.0 | 0.00 | 0.00 | 0.01 | 7 | 1009.0 |
| 20260508174036 | 68 | 0 | 0.0 | 3.0 | 0.00 | 0.00 | 0.01 | 7 | 1008.9 |
| 20260508172654 | 68 | 0 | 0.0 | 2.0 | 0.00 | 0.00 | 0.01 | 7 | 1008.9 |
| 20260508171247 | 68 | 0 | 0.0 | 2.0 | 0.00 | 0.00 | 0.01 | 7 | 1008.9 |
| 20260508165844 | 69 | 319 | 2.0 | 3.0 | 0.00 | 0.00 | 0.01 | 7 | 1008.9 |
| 20260508164530 | 68 | 0 | 0.0 | 0.0 | 0.00 | 0.00 | 0.01 | 7 | 1009.0 |
| 20260508163256 | 68 | 0 | 0.0 | 0.0 | 0.00 | 0.00 | 0.01 | 7 | 1009.0 |
| 20260508161843 | 69 | 0 | 0.0 | 3.0 | 0.00 | 0.00 | 0.01 | 7 | 1009.0 |
| 20260508160450 | 68 | 0 | 0.0 | 4.0 | 0.00 | 0.00 | 0.01 | 7 | 1008.7 |
| 20260508155101 | 68 | 0 | 0.0 | 3.0 | 0.00 | 0.00 | 0.01 | 7 | 1008.6 |
| 20260508153716 | 68 | 240 | 2.0 | 2.0 | 0.00 | 0.00 | 0.01 | 7 | 1008.4 |
| 20260508152341 | 67 | 230 | 3.0 | 8.0 | 0.00 | 0.00 | 0.01 | 7 | 1008.6 |
| 20260508151113 | 68 | 226 | 1.0 | 4.0 | 0.00 | 0.00 | 0.01 | 7 | 1008.7 |
| 20260508145815 | 68 | 150 | 1.0 | 6.0 | 0.00 | 0.00 | 0.01 | 7 | 1008.7 |
| 20260508143055 | 67 | 187 | 4.0 | 6.0 | 0.00 | 0.00 | 0.01 | 7 | 1009.3 |
| 20260508141801 | 67 | 187 | 4.0 | 6.0 | 0.00 | 0.00 | 0.01 | 7 | 1009.3 |
| 20260508140502 | 67 | 0 | 0.0 | 4.0 | 0.00 | 0.00 | 0.01 | 7 | 1009.4 |
| 20260508135221 | 67 | 177 | 1.0 | 1.0 | 0.00 | 0.00 | 0.01 | 7 | 1009.5 |
| 20260508133749 | 67 | 195 | 4.0 | 7.0 | 0.00 | 0.00 | 0.01 | 7 | 1009.6 |
| 20260508132548 | 67 | 226 | 6.0 | 11.0 | 0.00 | 0.00 | 0.01 | 7 | 1009.9 |
| 20260508131244 | 70 | 0 | 0.0 | 4.0 | 0.00 | 0.00 | 0.01 | 6 | 1009.8 |
| 20260508130001 | 68 | 210 | 1.0 | 2.0 | 0.00 | 0.00 | 0.01 | 7 | 1009.9 |
| 20260508124800 | 68 | 210 | 1.0 | 2.0 | 0.00 | 0.00 | 0.01 | 7 | 1009.9 |
| 20260508123500 | 69 | 165 | 2.0 | 7.0 | 0.00 | 0.00 | 0.01 | 6 | 1010.0 |
| 20260508122011 | 69 | 193 | 2.0 | 3.0 | 0.00 | 0.00 | 0.01 | 7 | 1010.0 |
| 20260508120719 | 67 | 0 | 0.0 | 4.0 | 0.00 | 0.00 | 0.01 | 7 | 1010.1 |
| 20260508115446 | 65 | 236 | 1.0 | 2.0 | 0.00 | 0.00 | 0.01 | 7 | 1010.3 |
| 20260508114048 | 65 | 131 | 1.0 | 3.0 | 0.00 | 0.00 | 0.01 | 7 | 1010.3 |
| 20260508112555 | 64 | 0 | 0.0 | 3.0 | 0.00 | 0.00 | 0.01 | 7 | 1010.4 |
| 20260508111335 | 64 | 0 | 0.0 | 6.0 | 0.00 | 0.00 | 0.01 | 7 | 1010.0 |
| 20260508110047 | 63 | 214 | 2.0 | 6.0 | 0.00 | 0.00 | 0.01 | 7 | 1009.5 |
| 20260508105709 | 63 | 214 | 2.0 | 6.0 | 0.00 | 0.00 | 0.01 | 7 | 1009.5 |
| 20260508104500 | 64 | 204 | 1.0 | 4.0 | 0.00 | 0.00 | 0.01 | 7 | 1010.4 |
| 20260508103032 | 64 | 0 | 0.0 | 0.0 | 0.00 | 0.00 | 0.01 | 7 | 1010.4 |
| 20260508101548 | 64 | 0 | 0.0 | 1.0 | 0.00 | 0.00 | 0.01 | 7 | 1010.7 |
| 20260508100240 | 64 | 0 | 0.0 | 1.0 | 0.00 | 0.00 | 0.01 | 7 | 1010.7 |
| 20260508095021 | 64 | 0 | 0.0 | 0.0 | 0.00 | 0.00 | 0.01 | 7 | 1010.6 |
| 20260508093652 | 64 | 223 | 4.0 | 4.0 | 0.00 | 0.00 | 0.01 | 7 | 1010.4 |
| 20260508092235 | 64 | 198 | 2.0 | 4.0 | 0.00 | 0.00 | 0.01 | 7 | 1010.0 |
| 20260508090825 | 64 | 0 | 0.0 | 1.0 | 0.00 | 0.00 | 0.01 | 7 | 1010.4 |
| 20260508085335 | 65 | 0 | 0.0 | 1.0 | 0.00 | 0.00 | 0.01 | 7 | 1010.4 |
| 20260508084115 | 64 | 0 | 0.0 | 0.0 | 0.00 | 0.00 | 0.01 | 7 | 1010.2 |
| 20260508082836 | 62 | 0 | 0.0 | 0.0 | 0.00 | 0.00 | 0.01 | 8 | 1009.9 |
| 20260508081625 | 62 | 0 | 0.0 | 0.0 | 0.00 | 0.00 | 0.01 | 8 | 1009.9 |
| 20260508080239 | 61 | 0 | 0.0 | 0.0 | 0.00 | 0.00 | 0.01 | 8 | 1010.0 |
| 20260508074740 | 60 | 0 | 0.0 | 1.0 | 0.00 | 0.00 | 0.01 | 8 | 1009.8 |
| 20260508073304 | 60 | 0 | 0.0 | 0.0 | 0.01 | 0.00 | 0.01 | 8 | 1009.8 |
| 20260508071816 | 60 | 0 | 0.0 | 1.0 | 0.01 | 0.00 | 0.01 | 8 | 1009.9 |
| 20260508070539 | 58 | 171 | 1.0 | 1.0 | 0.01 | 0.00 | 0.01 | 8 | 1009.7 |
| 20260508065315 | 58 | 0 | 0.0 | 0.0 | 0.00 | 0.00 | 0.00 | 8 | 1009.7 |
| 20260508064020 | 57 | 0 | 0.0 | 0.0 | 0.00 | 0.00 | 0.00 | 8 | 1009.6 |
| 20260508062620 | 57 | 111 | 3.0 | 3.0 | 0.00 | 0.00 | 0.00 | 8 | 1009.1 |
| 20260508061320 | 57 | 130 | 1.0 | 3.0 | 0.00 | 0.00 | 0.00 | 8 | 1009.2 |
| 20260508055930 | 0 | 0 | 0.0 | 0.0 | 0.00 | 0.00 | 0.00 | 100 | 1009.4 |
| 20260508054730 | 0 | 0 | 0.0 | 0.0 | 0.00 | 0.00 | 0.00 | 100 | 1009.4 |
| 20260508053415 | 0 | 0 | 0.0 | 0.0 | 0.00 | 0.00 | 0.00 | 100 | 1009.0 |
| 20260508051920 | 0 | 0 | 0.0 | 0.0 | 0.00 | 0.00 | 0.00 | 100 | 1008.7 |
| 20260508050700 | 0 | 0 | 0.0 | 0.0 | 0.00 | 0.00 | 0.00 | 100 | 1008.6 |
| 20260508045405 | 0 | 0 | 0.0 | 0.0 | 0.00 | 0.00 | 0.00 | 100 | 1008.3 |
| 20260508044133 | 0 | 0 | 0.0 | 0.0 | 0.00 | 0.00 | 0.00 | 100 | 1008.4 |
| 20260508042655 | 0 | 0 | 0.0 | 0.0 | 0.00 | 0.00 | 0.00 | 100 | 1008.2 |
| 20260508041355 | 0 | 0 | 0.0 | 0.0 | 0.00 | 0.00 | 0.00 | 100 | 1008.2 |
| 20260508035940 | 0 | 0 | 0.0 | 0.0 | 0.00 | 0.00 | 0.00 | 100 | 1008.4 |
| 20260508034603 | 0 | 0 | 0.0 | 0.0 | 0.00 | 0.00 | 0.00 | 100 | 1008.4 |
| 20260508033343 | 0 | 0 | 0.0 | 0.0 | 0.00 | 0.00 | 0.00 | 100 | 1008.3 |
| 20260508032040 | 0 | 0 | 0.0 | 0.0 | 0.00 | 0.00 | 0.00 | 100 | 1008.4 |
| 20260508030841 | 0 | 0 | 0.0 | 0.0 | 0.00 | 0.00 | 0.00 | 100 | 1008.4 |
| 20260508025508 | 0 | 0 | 0.0 | 0.0 | 0.00 | 0.00 | 0.00 | 100 | 1008.7 |
| 20260508024215 | 0 | 0 | 0.0 | 0.0 | 0.00 | 0.00 | 0.00 | 100 | 1008.8 |
| 20260508022915 | 0 | 0 | 0.0 | 0.0 | 0.00 | 0.00 | 0.00 | 100 | 1008.8 |
| 20260508021518 | 0 | 0 | 0.0 | 0.0 | 0.00 | 0.00 | 0.00 | 100 | 1008.7 |
| 20260508020315 | 0 | 0 | 0.0 | 0.0 | 0.00 | 0.00 | 0.00 | 100 | 1008.7 |
| 20260508014855 | 0 | 0 | 0.0 | 0.0 | 0.00 | 0.00 | 0.00 | 100 | 1008.6 |
| 20260508013653 | 0 | 0 | 0.0 | 0.0 | 0.00 | 0.00 | 0.00 | 100 | 1009.0 |
| 20260508012252 | 0 | 0 | 0.0 | 0.0 | 0.00 | 0.00 | 0.00 | 100 | 1009.1 |
| 20260508011025 | 0 | 0 | 0.0 | 0.0 | 0.00 | 0.00 | 0.00 | 100 | 1009.3 |
| 20260508005625 | 0 | 0 | 0.0 | 0.0 | 0.00 | 0.00 | 0.00 | 100 | 1009.3 |
| 20260508004259 | 0 | 0 | 0.0 | 0.0 | 0.00 | 0.00 | 0.00 | 100 | 1009.3 |
| 20260508002920 | 0 | 0 | 0.0 | 0.0 | 0.00 | 0.00 | 0.00 | 100 | 1009.4 |
| 20260508001653 | 0 | 0 | 0.0 | 0.0 | 0.00 | 0.00 | 0.00 | 100 | 1009.4 |
| 20260508000300 | 0 | 0 | 0.0 | 0.0 | 0.00 | 0.00 | 0.00 | 100 | 1009.4 |
| 20260507234935 | 0 | 0 | 0.0 | 0.0 | 0.00 | 0.00 | 0.00 | 100 | 1009.7 |
| 20260507233507 | 0 | 0 | 0.0 | 0.0 | 0.00 | 0.00 | 0.00 | 100 | 1009.7 |
| 20260507232250 | 0 | 0 | 0.0 | 0.0 | 0.00 | 0.00 | 0.00 | 100 | 1009.8 |
| 20260507231000 | 0 | 0 | 0.0 | 0.0 | 0.00 | 0.00 | 0.00 | 100 | 1010.0 |
| 20260507225540 | 0 | 0 | 0.0 | 0.0 | 0.00 | 0.00 | 0.00 | 100 | 1010.2 |
| 20260507224320 | 0 | 0 | 0.0 | 0.0 | 0.00 | 0.00 | 0.00 | 100 | 1010.0 |
| 20260507223105 | 0 | 0 | 0.0 | 0.0 | 0.00 | 0.00 | 0.00 | 100 | 1010.0 |
| 20260507221625 | 0 | 0 | 0.0 | 0.0 | 0.00 | 0.00 | 0.00 | 100 | 1009.9 |
| 20260507220143 | 0 | 0 | 0.0 | 0.0 | 0.00 | 0.00 | 0.00 | 100 | 1009.8 |
| 20260507214725 | 0 | 0 | 0.0 | 0.0 | 0.00 | 0.00 | 0.16 | 100 | 1010.0 |
| 20260507213515 | 0 | 0 | 0.0 | 0.0 | 0.00 | 0.00 | 0.16 | 100 | 1010.0 |
| 20260507212046 | 0 | 0 | 0.0 | 0.0 | 0.00 | 0.00 | 0.16 | 100 | 1009.9 |
| 20260507210615 | 0 | 0 | 0.0 | 0.0 | 0.00 | 0.00 | 0.16 | 100 | 1009.9 |
| 20260507205230 | 0 | 0 | 0.0 | 0.0 | 0.05 | 0.00 | 0.16 | 100 | 1009.8 |
| 20260507204033 | 0 | 0 | 0.0 | 0.0 | 0.13 | 0.00 | 0.16 | 100 | 1009.8 |
| 20260507202753 | 0 | 0 | 0.0 | 0.0 | 0.14 | 0.00 | 0.16 | 100 | 1009.7 |
| 20260507201535 | 57 | 0 | 0.0 | 1.0 | 0.14 | 0.00 | 0.16 | 8 | 1009.8 |
| 20260507200305 | 57 | 0 | 0.0 | 1.0 | 0.14 | 0.00 | 0.16 | 8 | 1009.8 |
| 20260507195022 | 58 | 150 | 1.0 | 3.0 | 0.11 | 0.00 | 0.11 | 8 | 1009.8 |